Retour au catalogue

SL-14 R/B

ActifPO
NORAD 13590·ROCKET BODY·🇷🇺 Russia

Lancé Sep 24, 1982 depuis Plesetsk Cosmodrome

Loading…

Prochains Passages (prochaines 24 heures)

TLE

FraisSource: Space-Track

Époque: Sep 14, 2026, 17:31 UTC

1 13590U 82096B   26257.73035128 -.00000002  00000-0 -88040-4 0  9992
2 13590  82.6081  49.5485 0007171 110.2374 261.1086 12.42686538994667

Suivez SL-14 R/B en temps réel avec AllMySat

Download on the App Store